When you browse on this site, cookies collect data to enhance your experience and personalize the content and advertising you see.
Visit our Privacy Policy to learn more. By continuing to use the site, you agree to this use of cookies and data.
  • en Suisse
  • Liste des pays
  • À 7 jours
  • Température de l'eau
  • Carte météo
  • Widgets météo
  • user-avatar
    Se connecter

    Météo par heure à Békéscsaba

    Ce jour, 26 Mai, Mardi

    Heure Température Précipitation Vent Pression Humidité
    00:00 +10°C° 0.3 mm 2 m/s 758 mmHg 90%
    01:00 +10°C° 0.3 mm 3 m/s 758 mmHg 91%
    02:00 +9°C° 0 mm 3 m/s 759 mmHg 92%
    03:00 +9°C° 0 mm 3 m/s 759 mmHg 93%
    04:00 +8°C° 0 mm 3 m/s 759 mmHg 95%
    05:00 +8°C° 0 mm 4 m/s 759 mmHg 91%
    06:00 +10°C° 0 mm 4 m/s 759 mmHg 88%
    07:00 +12°C° 0 mm 5 m/s 759 mmHg 85%
    08:00 +13°C° 0.1 mm 5 m/s 759 mmHg 80%
    09:00 +15°C° 0.1 mm 5 m/s 759 mmHg 74%
    10:00 +16°C° 0.1 mm 5 m/s 759 mmHg 69%
    11:00 +17°C° 0.5 mm 5 m/s 759 mmHg 68%
    12:00 +17°C° 0.5 mm 6 m/s 759 mmHg 66%
    13:00 +19°C° 0.5 mm 6 m/s 758 mmHg 64%
    14:00 +19°C° 0.4 mm 6 m/s 758 mmHg 65%
    15:00 +19°C° 0.4 mm 6 m/s 758 mmHg 65%
    16:00 +19°C° 0.4 mm 6 m/s 758 mmHg 66%
    17:00 +16°C° 0.1 mm 6 m/s 758 mmHg 71%
    18:00 +15°C° 0.1 mm 5 m/s 758 mmHg 75%
    19:00 +14°C° 0.1 mm 5 m/s 758 mmHg 80%
    20:00 +13°C° 0 mm 5 m/s 758 mmHg 82%
    21:00 +12°C° 0 mm 5 m/s 759 mmHg 83%
    22:00 +10°C° 0 mm 5 m/s 759 mmHg 85%
    23:00 +11°C° 0 mm 4 m/s 759 mmHg 86%

    Demain, 27 Mai, Mercredi

    Heure Température Précipitation Vent Pression Humidité
    00:00 +11°C° 0 mm 4 m/s 759 mmHg 87%
    01:00 +10°C° 0 mm 4 m/s 759 mmHg 89%
    02:00 +10°C° 0 mm 4 m/s 759 mmHg 88%
    03:00 +10°C° 0 mm 4 m/s 759 mmHg 88%
    04:00 +11°C° 0 mm 4 m/s 759 mmHg 88%
    05:00 +10°C° 0 mm 5 m/s 759 mmHg 85%
    06:00 +11°C° 0 mm 6 m/s 760 mmHg 82%
    07:00 +13°C° 0 mm 6 m/s 760 mmHg 79%
    08:00 +15°C° 0 mm 6 m/s 760 mmHg 75%
    09:00 +16°C° 0 mm 6 m/s 760 mmHg 71%
    10:00 +17°C° 0 mm 6 m/s 760 mmHg 67%
    11:00 +19°C° 0.4 mm 6 m/s 760 mmHg 66%
    12:00 +19°C° 0.4 mm 6 m/s 759 mmHg 66%
    13:00 +19°C° 0.4 mm 6 m/s 759 mmHg 66%
    14:00 +19°C° 0.1 mm 6 m/s 759 mmHg 66%
    15:00 +19°C° 0.1 mm 6 m/s 759 mmHg 67%
    16:00 +19°C° 0.1 mm 6 m/s 758 mmHg 67%
    17:00 +17°C° 0 mm 5 m/s 758 mmHg 72%
    18:00 +17°C° 0 mm 4 m/s 758 mmHg 78%
    19:00 +16°C° 0 mm 3 m/s 758 mmHg 83%
    20:00 +14°C° 0 mm 3 m/s 759 mmHg 85%
    21:00 +13°C° 0 mm 3 m/s 759 mmHg 86%
    22:00 +12°C° 0 mm 3 m/s 759 mmHg 88%
    23:00 +12°C° 0 mm 3 m/s 759 mmHg 88%

    Après-demain, 28 Mai, Jeudi

    Heure Température Précipitation Vent Pression Humidité
    00:00 +11°C° 0 mm 3 m/s 759 mmHg 89%
    01:00 +11°C° 0 mm 3 m/s 759 mmHg 90%
    02:00 +10°C° 0 mm 3 m/s 759 mmHg 89%
    03:00 +10°C° 0 mm 3 m/s 758 mmHg 89%
    04:00 +10°C° 0 mm 3 m/s 758 mmHg 89%
    05:00 +11°C° 0 mm 3 m/s 758 mmHg 85%
    06:00 +13°C° 0 mm 3 m/s 758 mmHg 80%
    07:00 +15°C° 0 mm 4 m/s 758 mmHg 75%
    08:00 +17°C° 0.1 mm 4 m/s 758 mmHg 70%
    09:00 +19°C° 0.1 mm 4 m/s 758 mmHg 66%
    10:00 +20°C° 0.1 mm 4 m/s 758 mmHg 61%
    11:00 +20°C° 0.2 mm 4 m/s 757 mmHg 60%
    12:00 +20°C° 0.2 mm 4 m/s 757 mmHg 59%
    13:00 +21°C° 0.2 mm 4 m/s 757 mmHg 57%
    14:00 +20°C° 0.1 mm 4 m/s 756 mmHg 60%
    15:00 +20°C° 0.1 mm 4 m/s 756 mmHg 62%
    16:00 +20°C° 0.1 mm 4 m/s 756 mmHg 64%
    17:00 +18°C° 0.1 mm 4 m/s 756 mmHg 69%
    18:00 +17°C° 0.1 mm 3 m/s 756 mmHg 74%
    19:00 +16°C° 0.1 mm 3 m/s 756 mmHg 80%
    20:00 +14°C° 0 mm 3 m/s 756 mmHg 81%
    21:00 +13°C° 0 mm 3 m/s 756 mmHg 83%
    22:00 +12°C° 0 mm 3 m/s 756 mmHg 85%
    23:00 +11°C° 0 mm 3 m/s 756 mmHg 86%

    29 Mai, Vendredi

    Heure Température Précipitation Vent Pression Humidité
    00:00 +11°C° 0 mm 3 m/s 756 mmHg 87%
    01:00 +10°C° 0 mm 3 m/s 756 mmHg 88%
    02:00 +10°C° 0 mm 3 m/s 756 mmHg 88%
    03:00 +9°C° 0 mm 3 m/s 756 mmHg 87%
    04:00 +9°C° 0 mm 3 m/s 756 mmHg 87%
    05:00 +11°C° 0 mm 3 m/s 756 mmHg 83%
    06:00 +12°C° 0 mm 4 m/s 756 mmHg 79%
    07:00 +14°C° 0 mm 4 m/s 756 mmHg 75%
    08:00 +15°C° 0.1 mm 4 m/s 756 mmHg 71%
    09:00 +17°C° 0.1 mm 4 m/s 756 mmHg 66%
    10:00 +18°C° 0.1 mm 4 m/s 756 mmHg 62%
    11:00 +18°C° 0.4 mm 4 m/s 755 mmHg 62%
    12:00 +18°C° 0.4 mm 4 m/s 755 mmHg 61%
    13:00 +19°C° 0.4 mm 4 m/s 755 mmHg 61%
    14:00 +18°C° 0.3 mm 4 m/s 754 mmHg 62%
    15:00 +18°C° 0.3 mm 4 m/s 754 mmHg 64%
    16:00 +18°C° 0.3 mm 4 m/s 754 mmHg 65%
    17:00 +15°C° 0.1 mm 4 m/s 754 mmHg 68%
    18:00 +14°C° 0.1 mm 4 m/s 754 mmHg 71%
    19:00 +13°C° 0.1 mm 3 m/s 754 mmHg 75%
    20:00 +12°C° 0 mm 3 m/s 755 mmHg 73%
    21:00 +12°C° 0 mm 3 m/s 755 mmHg 72%
    22:00 +11°C° 0 mm 3 m/s 755 mmHg 71%
    23:00 +10°C° 0 mm 3 m/s 755 mmHg 70%

    30 Mai, Samedi

    Heure Température Précipitation Vent Pression Humidité
    00:00 +10°C° 0 mm 3 m/s 755 mmHg 70%
    01:00 +9°C° 0 mm 3 m/s 755 mmHg 69%
    02:00 +9°C° 0 mm 2 m/s 755 mmHg 70%
    03:00 +8°C° 0 mm 2 m/s 755 mmHg 70%
    04:00 +8°C° 0 mm 2 m/s 755 mmHg 70%
    05:00 +10°C° 0 mm 2 m/s 755 mmHg 68%
    06:00 +11°C° 0 mm 3 m/s 755 mmHg 66%
    07:00 +13°C° 0 mm 3 m/s 755 mmHg 64%
    08:00 +14°C° 0 mm 3 m/s 755 mmHg 59%
    09:00 +16°C° 0 mm 3 m/s 755 mmHg 55%
    10:00 +17°C° 0 mm 3 m/s 756 mmHg 51%
    11:00 +17°C° 0.1 mm 3 m/s 755 mmHg 51%
    12:00 +18°C° 0.1 mm 3 m/s 755 mmHg 51%
    13:00 +18°C° 0.1 mm 3 m/s 755 mmHg 51%
    14:00 +18°C° 0.3 mm 3 m/s 755 mmHg 54%
    15:00 +18°C° 0.3 mm 3 m/s 755 mmHg 57%
    16:00 +17°C° 0.3 mm 3 m/s 755 mmHg 59%
    17:00 +16°C° 0.1 mm 2 m/s 755 mmHg 64%
    18:00 +15°C° 0.1 mm 1 m/s 755 mmHg 69%
    19:00 +13°C° 0.1 mm 1 m/s 755 mmHg 74%
    20:00 +12°C° 0 mm 1 m/s 755 mmHg 77%
    21:00 +11°C° 0 mm 1 m/s 755 mmHg 79%
    22:00 +11°C° 0 mm 1 m/s 756 mmHg 82%
    23:00 +10°C° 0 mm 1 m/s 756 mmHg 84%

    31 Mai, Dimanche

    Heure Température Précipitation Vent Pression Humidité
    00:00 +9°C° 0 mm 0 m/s 756 mmHg 85%
    01:00 +8°C° 0 mm 0 m/s 755 mmHg 87%
    02:00 +8°C° 0 mm 0 m/s 755 mmHg 88%
    03:00 +8°C° 0 mm 0 m/s 755 mmHg 88%
    04:00 +8°C° 0 mm 1 m/s 755 mmHg 88%
    05:00 +10°C° 0 mm 1 m/s 755 mmHg 84%
    06:00 +12°C° 0 mm 1 m/s 755 mmHg 79%
    07:00 +14°C° 0 mm 1 m/s 755 mmHg 75%
    08:00 +15°C° 0.2 mm 2 m/s 755 mmHg 69%
    09:00 +17°C° 0.2 mm 2 m/s 755 mmHg 64%
    10:00 +18°C° 0.2 mm 2 m/s 754 mmHg 59%
    11:00 +19°C° 0.2 mm 2 m/s 754 mmHg 55%
    12:00 +19°C° 0.2 mm 2 m/s 754 mmHg 52%
    13:00 +20°C° 0.2 mm 2 m/s 753 mmHg 48%
    14:00 +20°C° 0 mm 2 m/s 753 mmHg 50%
    15:00 +20°C° 0 mm 2 m/s 753 mmHg 51%
    16:00 +20°C° 0 mm 2 m/s 753 mmHg 53%
    17:00 +18°C° 0 mm 2 m/s 753 mmHg 58%
    18:00 +16°C° 0 mm 1 m/s 752 mmHg 64%
    19:00 +15°C° 0 mm 1 m/s 752 mmHg 69%
    20:00 +14°C° 0 mm 1 m/s 753 mmHg 73%
    21:00 +13°C° 0 mm 2 m/s 753 mmHg 78%
    22:00 +10°C° 0 mm 2 m/s 753 mmHg 82%
    23:00 +10°C° 0 mm 2 m/s 753 mmHg 85%
    Voir plus